When you browse on this site, cookies collect data to enhance your experience and personalize the content and advertising you see.
Visit our Privacy Policy to learn more. By continuing to use the site, you agree to this use of cookies and data.
  • In Austria
  • List of Countries
  • For 7 days
  • Water Temperature
  • Satellite Maps
  • Weather Map
  • News
  • Weather Widgets
  • user-avatar
    Login

    Hourly Weather Ozerany

    Today, 23 May, Thursday

    Time Temperature Precipitation Wind Pressure Humidity
    00:00 +14°C° 0 mm 0 mps 744 mmHg 75%
    01:00 +14°C° 0 mm 0 mps 744 mmHg 76%
    02:00 +15°C° 0 mm 1 mps 743 mmHg 76%
    03:00 +15°C° 0 mm 1 mps 743 mmHg 77%
    04:00 +15°C° 0 mm 1 mps 743 mmHg 78%
    05:00 +15°C° 0 mm 1 mps 743 mmHg 78%
    06:00 +18°C° 0 mm 1 mps 743 mmHg 71%
    07:00 +20°C° 0 mm 1 mps 744 mmHg 64%
    08:00 +23°C° 0 mm 1 mps 744 mmHg 57%
    09:00 +24°C° 0 mm 1 mps 744 mmHg 52%
    10:00 +25°C° 0 mm 1 mps 743 mmHg 46%
    11:00 +26°C° 0 mm 2 mps 743 mmHg 41%
    12:00 +26°C° 0 mm 2 mps 743 mmHg 41%
    13:00 +27°C° 0 mm 2 mps 743 mmHg 42%
    14:00 +27°C° 0 mm 2 mps 743 mmHg 42%
    15:00 +26°C° 0 mm 2 mps 743 mmHg 44%
    16:00 +26°C° 0 mm 2 mps 743 mmHg 46%
    17:00 +26°C° 0 mm 2 mps 743 mmHg 48%
    18:00 +24°C° 0 mm 2 mps 743 mmHg 54%
    19:00 +23°C° 0 mm 2 mps 743 mmHg 60%
    20:00 +20°C° 0 mm 2 mps 743 mmHg 65%
    21:00 +19°C° 0 mm 2 mps 743 mmHg 68%
    22:00 +18°C° 0 mm 2 mps 743 mmHg 71%
    23:00 +17°C° 0 mm 2 mps 743 mmHg 74%

    Tomorrow, 24 May, Friday

    Time Temperature Precipitation Wind Pressure Humidity
    00:00 +18°C° 0 mm 1 mps 743 mmHg 77%
    01:00 +16°C° 0 mm 1 mps 743 mmHg 79%
    02:00 +15°C° 0 mm 1 mps 743 mmHg 82%
    03:00 +15°C° 0 mm 1 mps 743 mmHg 83%
    04:00 +15°C° 0 mm 1 mps 743 mmHg 84%
    05:00 +16°C° 0 mm 1 mps 744 mmHg 84%
    06:00 +19°C° 0 mm 1 mps 744 mmHg 77%
    07:00 +21°C° 0 mm 1 mps 744 mmHg 70%
    08:00 +23°C° 0 mm 1 mps 744 mmHg 63%
    09:00 +25°C° 0.1 mm 1 mps 744 mmHg 57%
    10:00 +26°C° 0.1 mm 1 mps 744 mmHg 50%
    11:00 +28°C° 0.1 mm 1 mps 744 mmHg 44%
    12:00 +27°C° 0 mm 1 mps 744 mmHg 44%
    13:00 +27°C° 0 mm 1 mps 743 mmHg 44%
    14:00 +27°C° 0 mm 1 mps 743 mmHg 44%
    15:00 +26°C° 0 mm 1 mps 743 mmHg 48%
    16:00 +26°C° 0 mm 1 mps 743 mmHg 53%
    17:00 +25°C° 0 mm 1 mps 743 mmHg 57%
    18:00 +24°C° 0 mm 1 mps 743 mmHg 61%
    19:00 +23°C° 0 mm 1 mps 743 mmHg 66%
    20:00 +21°C° 0 mm 1 mps 743 mmHg 70%
    21:00 +20°C° 0 mm 1 mps 743 mmHg 74%
    22:00 +19°C° 0 mm 1 mps 743 mmHg 78%
    23:00 +18°C° 0 mm 1 mps 743 mmHg 82%

    Day after tomorrow, 25 May, Saturday

    Time Temperature Precipitation Wind Pressure Humidity
    00:00 +18°C° 0.5 mm 1 mps 742 mmHg 85%
    01:00 +16°C° 0.5 mm 1 mps 742 mmHg 88%
    02:00 +16°C° 0.5 mm 1 mps 742 mmHg 91%
    03:00 +16°C° 0 mm 1 mps 742 mmHg 92%
    04:00 +16°C° 0 mm 1 mps 742 mmHg 92%
    05:00 +16°C° 0 mm 1 mps 742 mmHg 93%
    06:00 +18°C° 0.1 mm 1 mps 742 mmHg 88%
    07:00 +19°C° 0.1 mm 2 mps 742 mmHg 84%
    08:00 +20°C° 0.1 mm 2 mps 742 mmHg 79%
    09:00 +21°C° 0.7 mm 2 mps 742 mmHg 75%
    10:00 +23°C° 0.7 mm 2 mps 742 mmHg 70%
    11:00 +24°C° 0.7 mm 2 mps 742 mmHg 65%
    12:00 +24°C° 0.1 mm 2 mps 742 mmHg 63%
    13:00 +25°C° 0.1 mm 3 mps 742 mmHg 62%
    14:00 +25°C° 0.1 mm 3 mps 741 mmHg 60%
    15:00 +24°C° 0.1 mm 3 mps 741 mmHg 61%
    16:00 +23°C° 0.1 mm 4 mps 741 mmHg 62%
    17:00 +23°C° 0.1 mm 4 mps 741 mmHg 63%
    18:00 +21°C° 0 mm 3 mps 741 mmHg 67%
    19:00 +19°C° 0 mm 3 mps 741 mmHg 71%
    20:00 +18°C° 0 mm 3 mps 741 mmHg 75%
    21:00 +17°C° 0 mm 3 mps 741 mmHg 76%
    22:00 +16°C° 0 mm 3 mps 742 mmHg 77%
    23:00 +14°C° 0 mm 3 mps 742 mmHg 79%

    26 May, Sunday

    Time Temperature Precipitation Wind Pressure Humidity
    00:00 +13°C° 0 mm 3 mps 742 mmHg 83%
    01:00 +12°C° 0 mm 3 mps 742 mmHg 88%
    02:00 +13°C° 0 mm 2 mps 742 mmHg 92%
    03:00 +12°C° 0 mm 2 mps 742 mmHg 92%
    04:00 +12°C° 0 mm 2 mps 743 mmHg 91%
    05:00 +12°C° 0 mm 2 mps 743 mmHg 91%
    06:00 +13°C° 0 mm 2 mps 743 mmHg 82%
    07:00 +14°C° 0 mm 3 mps 743 mmHg 74%
    08:00 +16°C° 0 mm 3 mps 743 mmHg 65%
    09:00 +17°C° 0 mm 3 mps 743 mmHg 60%
    10:00 +18°C° 0 mm 4 mps 743 mmHg 54%
    11:00 +19°C° 0 mm 4 mps 743 mmHg 49%
    12:00 +20°C° 0 mm 4 mps 743 mmHg 48%
    13:00 +21°C° 0 mm 5 mps 743 mmHg 47%
    14:00 +21°C° 0 mm 5 mps 743 mmHg 46%
    15:00 +21°C° 0 mm 5 mps 743 mmHg 48%
    16:00 +21°C° 0 mm 5 mps 742 mmHg 50%
    17:00 +21°C° 0 mm 4 mps 742 mmHg 52%
    18:00 +19°C° 0 mm 4 mps 742 mmHg 60%
    19:00 +18°C° 0 mm 3 mps 742 mmHg 67%
    20:00 +16°C° 0 mm 2 mps 742 mmHg 75%
    21:00 +16°C° 0 mm 3 mps 742 mmHg 77%
    22:00 +14°C° 0 mm 3 mps 742 mmHg 79%
    23:00 +14°C° 0 mm 4 mps 742 mmHg 80%

    27 May, Monday

    Time Temperature Precipitation Wind Pressure Humidity
    00:00 +13°C° 0 mm 4 mps 743 mmHg 80%
    01:00 +12°C° 0 mm 3 mps 743 mmHg 79%
    02:00 +12°C° 0 mm 3 mps 743 mmHg 78%
    03:00 +11°C° 0 mm 3 mps 743 mmHg 81%
    04:00 +10°C° 0 mm 3 mps 744 mmHg 85%
    05:00 +10°C° 0 mm 3 mps 744 mmHg 89%
    06:00 +11°C° 0 mm 4 mps 744 mmHg 81%
    07:00 +12°C° 0 mm 4 mps 745 mmHg 73%
    08:00 +14°C° 0 mm 5 mps 745 mmHg 65%
    09:00 +15°C° 0 mm 5 mps 745 mmHg 59%
    10:00 +16°C° 0 mm 5 mps 746 mmHg 54%
    11:00 +17°C° 0 mm 5 mps 746 mmHg 48%
    12:00 +19°C° 0 mm 5 mps 746 mmHg 46%
    13:00 +19°C° 0 mm 5 mps 746 mmHg 44%
    14:00 +20°C° 0 mm 5 mps 746 mmHg 42%
    15:00 +20°C° 0 mm 5 mps 746 mmHg 45%
    16:00 +20°C° 0 mm 4 mps 746 mmHg 48%
    17:00 +20°C° 0 mm 4 mps 746 mmHg 51%
    18:00 +19°C° 0 mm 3 mps 746 mmHg 59%
    19:00 +17°C° 0 mm 2 mps 746 mmHg 67%
    20:00 +15°C° 0 mm 1 mps 746 mmHg 75%
    21:00 +15°C° 0 mm 1 mps 746 mmHg 76%
    22:00 +15°C° 0 mm 1 mps 747 mmHg 77%
    23:00 +14°C° 0 mm 1 mps 747 mmHg 78%

    28 May, Tuesday

    Time Temperature Precipitation Wind Pressure Humidity
    00:00 +14°C° 0 mm 2 mps 747 mmHg 79%
    01:00 +14°C° 0 mm 2 mps 747 mmHg 81%
    02:00 +14°C° 0 mm 2 mps 746 mmHg 82%
    03:00 +13°C° 0 mm 3 mps 746 mmHg 81%
    04:00 +14°C° 0 mm 3 mps 746 mmHg 79%
    05:00 +14°C° 0 mm 4 mps 746 mmHg 78%
    06:00 +15°C° 0.6 mm 4 mps 746 mmHg 82%
    07:00 +17°C° 0.6 mm 4 mps 745 mmHg 86%
    08:00 +17°C° 0.6 mm 5 mps 745 mmHg 90%
    09:00 +17°C° 2.1 mm 5 mps 744 mmHg 88%
    10:00 +19°C° 2.1 mm 5 mps 744 mmHg 87%
    11:00 +20°C° 2.1 mm 6 mps 744 mmHg 85%
    12:00 +22°C° 0 mm 6 mps 743 mmHg 74%
    13:00 +24°C° 0 mm 7 mps 743 mmHg 63%
    14:00 +27°C° 0 mm 7 mps 743 mmHg 52%
    15:00 +27°C° 0 mm 7 mps 742 mmHg 55%
    16:00 +27°C° 0 mm 7 mps 742 mmHg 58%
    17:00 +27°C° 0 mm 6 mps 742 mmHg 60%
    18:00 +24°C° 1.4 mm 6 mps 742 mmHg 68%
    19:00 +22°C° 1.4 mm 5 mps 742 mmHg 75%
    20:00 +21°C° 1.4 mm 5 mps 742 mmHg 83%
    21:00 +20°C° 0.7 mm 5 mps 742 mmHg 85%
    22:00 +20°C° 0.7 mm 4 mps 742 mmHg 88%
    23:00 +19°C° 0.7 mm 4 mps 742 mmHg 90%
    Show more